This is the latest recevied weather packets stored in our database for station/object N8VDS-10. If no packets are shown the sender has not sent any weather packets the latest 10 day(s).
| Time | Temp. | Humidity | Pressure | Rain* | Wind** | Luminosity | Snow |
|---|---|---|---|---|---|---|---|
| 1777900209 | 13.33° C | 65% | 1007.6 hPa | 0 mm | - | 308 W/m² | - |
| 1777899905 | 13.33° C | 65% | 1007.8 hPa | 0 mm | - | 291 W/m² | - |
| 1777899601 | 13.33° C | 65% | 1007.6 hPa | 0 mm | - | 271 W/m² | - |
| 1777899299 | 12.78° C | 66% | 1007.8 hPa | 0 mm | - | 164 W/m² | - |
| 1777898996 | 12.78° C | 67% | 1007.6 hPa | 0 mm | - | 245 W/m² | - |
| 1777898693 | 12.22° C | 67% | 1007.7 hPa | 0 mm | - | 229 W/m² | - |
| 1777898390 | 12.22° C | 67% | 1007.7 hPa | 0 mm | - | 216 W/m² | - |
| 1777898088 | 12.22° C | 67% | 1007.7 hPa | 0 mm | - | 201 W/m² | - |
| 1777897784 | 12.22° C | 68% | 1007.7 hPa | 0 mm | - | 184 W/m² | - |
| 1777897481 | 11.67° C | 68% | 1007.7 hPa | 0 mm | - | 137 W/m² | - |
| 1777897177 | 11.67° C | 69% | 1007.7 hPa | 0 mm | - | 156 W/m² | - |
| 1777896873 | 11.67° C | 69% | 1007.9 hPa | 0 mm | - | 141 W/m² | - |
| 1777896570 | 11.67° C | 69% | 1007.5 hPa | 0 mm | - | 135 W/m² | - |
| 1777896267 | 11.11° C | 70% | 1007.6 hPa | 0 mm | - | 122 W/m² | - |
| 1777895965 | 11.11° C | 70% | 1007.6 hPa | 0 mm | - | 110 W/m² | - |
| 1777895663 | 11.11° C | 70% | 1007.5 hPa | 0 mm | - | 106 W/m² | - |
| 1777895360 | 11.11° C | 71% | 1007.4 hPa | 0 mm | - | 93 W/m² | - |
| 1777895058 | 10.56° C | 72% | 1007.7 hPa | 0 mm | - | 74 W/m² | - |
| 1777894755 | 10.56° C | 72% | 1007.5 hPa | 0 mm | - | 48 W/m² | - |
| 1777894451 | 10.56° C | 72% | 1007.4 hPa | 0 mm | - | 45 W/m² | - |
| 1777894149 | 10.56° C | 73% | 1007.5 hPa | 0 mm | - | 50 W/m² | - |
| 1777893846 | 10° C | 73% | 1007.4 hPa | 0 mm | - | 47 W/m² | - |
| 1777893542 | 10° C | 73% | 1007.3 hPa | 0 mm | - | 41 W/m² | - |
| 1777893239 | 10° C | 74% | 1007.5 hPa | 0 mm | - | 32 W/m² | - |
| 1777892935 | 10° C | 74% | 1007.4 hPa | 0 mm | - | 28 W/m² | - |
* Rain latest hour (hover to see other rain measurements)
** Current wind speed in m/s (hover to see current wind gust speed)